This demonstration page uses our WeatherBlox Daily Observations layout. Learn more.

Left ArrowRight Arrow

39.01783, -85.05884

Hourly Observations for May 10, 2018

Temp ( °F °C ) Dew Point ( °F °C ) Humidity (%) Winds ( mph kmh ) Pressure ( in mb ) Visibility ( mi km ) Precip ( " mm )
2:26 am 02:26 Cloudy 72 22.2 59 15 64 64 SSW 14 22 29.80 1009 10 16 0.01 0.25
2:52 am 02:52 Cloudy 72 22.2 59 15 64 64 SW 10 17 29.81 1010 10 16 0.01 0.25
3:01 am 03:01 Cloudy with Thunderstorms 72 22.2 60 15.6 66 66 W 14 22 29.83 1010 10 16 0.00 0.00
3:06 am 03:06 Cloudy with Thunderstorms 72 22.2 60 15.6 66 66 WNW 20 31 29.85 1011 10 16 0.00 0.00
3:43 am 03:43 Cloudy with Light Rain 67 19.4 60 15.6 79 79 VRB 3 6 29.83 1010 7 11 0.03 0.76
3:52 am 03:52 Cloudy with Light Rain 65 18.3 59 15 81 81 Calm 29.83 1010 10 16 0.03 0.76
4:06 am 04:06 Cloudy with Thunderstorms 65 18.3 58 14.4 78 78 S 6 9 29.83 1010 10 16 0.00 0.03
4:46 am 04:46 Cloudy 66 19 61 16 83 83 SW 8 13 29.83 1010 10 16 0.00 0.03
4:52 am 04:52 Cloudy 66 18.9 62 16.7 87 87 SW 7 11 29.83 1010 10 16 0.00 0.03
5:52 am 05:52 Mostly Cloudy 66 18.9 62 16.7 87 87 SSW 8 13 29.82 1010 10 16 0.00 0.00
6:52 am 06:52 Mostly Cloudy 65 18.3 61 16.1 87 87 SSW 7 11 29.85 1011 9 14 0.00 0.00
7:52 am 07:52 Mostly Cloudy 67 19.4 61 16.1 81 81 WSW 8 13 29.88 1012 10 16 0.00 0.00
8:52 am 08:52 Partly Cloudy 69 20.6 61 16.1 76 76 WSW 9 15 29.89 1012 10 16 0.00 0.00
9:52 am 09:52 Mostly Sunny 71 21.7 60 15.6 68 68 W 10 17 29.91 1013 10 16 0.00 0.00
10:52 am 10:52 Mostly Sunny 75 23.9 60 15.6 60 60 WSW 12 19 29.91 1013 10 16 0.00 0.00
11:52 am 11:52 Mostly Sunny 77 25 55 12.8 47 47 W 17 28 29.93 1013 10 16 0.00 0.00
12:52 pm 12:52 Partly Cloudy 78 25.6 55 12.8 45 45 W 21 33 29.93 1013 10 16 0.00 0.00
1:52 pm 13:52 Partly Cloudy 79 26.1 55 12.8 44 44 W 16 26 29.93 1014 10 16 0.00 0.00
2:52 pm 14:52 Partly Cloudy 82 27.8 55 12.8 40 40 WNW 17 28 29.93 1014 10 16 0.00 0.00
3:52 pm 15:52 Partly Cloudy 81 27.2 53 11.7 38 38 WNW 17 28 29.92 1013 10 16 0.00 0.00
4:52 pm 16:52 Partly Cloudy 81 27.2 53 11.7 38 38 WNW 15 24 29.91 1013 10 16 0.00 0.00
5:52 pm 17:52 Mostly Sunny 82 27.8 53 11.7 37 37 WNW 10 17 29.90 1013 10 16 0.00 0.00
6:52 pm 18:52 Partly Cloudy 80 26.7 52 11.1 38 38 WNW 10 17 29.89 1012 10 16 0.00 0.00
7:52 pm 19:52 Mostly Sunny 78 25.6 52 11.1 40 40 NW 8 13 29.89 1012 10 16 0.00 0.00
8:52 pm 20:52 Mostly Clear 74 23.3 53 11.7 48 48 NW 3 6 29.91 1013 10 16 0.00 0.00
9:52 pm 21:52 Mostly Clear 72 22.2 54 12.2 53 53 Calm 29.93 1014 10 16 0.00 0.00
10:52 pm 22:52 Mostly Cloudy 67 19.4 55 12.8 66 66 Calm 29.95 1014 10 16 0.00 0.00
11:52 pm 23:52 Mostly Clear 70 21.1 53 11.7 55 55 Calm 29.94 1014 10 16 0.00 0.00

Powered by AerisWeather